• MPC Preparation (Info)

  • MPEC 2010-W60 : 2010 WV8

    The following Minor Planet Electronic Circular may be linked-to from your own Web pages, but must not otherwise be redistributed electronically.

    A form allowing access to any MPEC is at the bottom of this page.


    Read MPEC 2010-W59 Read MPEC 2010-X01


    M.P.E.C. 2010-W60                                Issued 2010 Nov. 30, 10:49 UT
    
         The Minor Planet Electronic Circulars contain information on unusual
             minor planets and routine data on comets.  They are published
       on behalf of Commission 20 of the International Astronomical Union by the
              Minor Planet Center, Smithsonian Astrophysical Observatory,
                              Cambridge, MA 02138, U.S.A.
    
                 Prepared using the Tamkin Foundation Computer Network
    
                                  MPC@CFA.HARVARD.EDU
           URL https://www.minorplanetcenter.org/iau/mpc.html  ISSN 1523-6714
    
                                       2010 WV8
    
    Observations:
         K10W08V* C2010 11 28.82384 05 17 02.37 +38 58 18.6          17.4 RuEW060114
         K10W08V  C2010 11 28.82775 05 17 00.70 +38 58 17.7          17.3 RuEW060114
         K10W08V  C2010 11 28.83168 05 16 59.06 +38 58 16.2          17.1 RuEW060114
         K10W08V  C2010 11 28.83561 05 16 57.31 +38 58 14.1          17.4 RuEW060114
         K10W08V  C2010 11 28.83955 05 16 55.50 +38 58 13.7          17.2 RuEW060114
         K10W08V  C2010 11 28.89049 05 16 32.25 +38 57 54.8          17.9 RuEW060114
         K10W08V  C2010 11 29.01197 05 15 37.55 +38 56 55.8          18.7 RvEW060C20
         K10W08V  C2010 11 29.01281 05 15 37.19 +38 56 55.4          18.9 RvEW060C20
         K10W08V  C2010 11 29.01365 05 15 36.81 +38 56 54.4          18.7 RvEW060C20
         K10W08V  C2010 11 29.03236 05 15 28.63 +38 56 44.1          18.2 RvEW060C20
         K10W08V  C2010 11 29.03445 05 15 27.73 +38 56 43.1          18.9 RvEW060C20
         K10W08V  C2010 11 29.03570 05 15 27.20 +38 56 42.4          18.1 RvEW060C20
         K10W08V  C2010 11 29.55664 05 12 03.84 +38 52 53.2          18.7 RoEW060300
         K10W08V  C2010 11 29.56011 05 12 02.47 +38 52 52.9          18.4 RoEW060300
         K10W08V  C2010 11 29.56360 05 12 00.98 +38 52 50.1          17.4 RoEW060300
         K10W08V SC2010 11 29.80555 05 10 30.35 +38 50 30.7          18.6 RuEW060473
         K10W08V SC2010 11 29.80694 05 10 29.81 +38 50 30.3          18.6 RuEW060473
         K10W08V KC2010 11 29.81153 05 10 27.90 +38 50 18.0                uEW060J95
         K10W08V SC2010 11 29.81448 05 10 26.84 +38 50 17.4          18.6 RuEW060J95
         K10W08V  C2010 11 29.92009 05 09 46.49 +38 49 48.3          18.7 RcEW060A24
         K10W08V  C2010 11 29.92378 05 09 45.04 +38 49 47.2          18.8 RcEW060A24
         K10W08V  C2010 11 29.92747 05 09 43.61 +38 49 46.2          18.7 RcEW060A24
         K10W08V  C2010 11 29.93116 05 09 42.17 +38 49 43.7          18.5 RcEW060A24
         K10W08V KC2010 11 29.93199 05 09 41.85 +38 49 43.6          18.6 RvEW060204
         K10W08V  C2010 11 29.93493 05 09 40.73 +38 49 42.7          18.6 RcEW060A24
         K10W08V  C2010 11 29.93846 05 09 39.37 +38 49 41.4          18.8 RcEW060A24
         K10W08V KC2010 11 29.93969 05 09 38.87 +38 49 40.4                vEW060204
         K10W08V  C2010 11 29.94196 05 09 38.02 +38 49 40.2          18.5 RcEW060A24
         K10W08V KC2010 11 29.94733 05 09 35.91 +38 49 37.1                vEW060204
         K10W08V 4C2010 11 30.22729205 07 57.80 +38 47 23.3          18.6 RuEW060673
         K10W08V 4C2010 11 30.22833305 07 57.38 +38 47 21.4          18.4 RuEW060673
         K10W08V 4C2010 11 30.22937505 07 56.97 +38 47 21.8          18.6 RuEW060673
         K10W08V 4C2010 11 30.23024305 07 56.69 +38 47 21.6          18.3 RuEW060673
         K10W08V 4C2010 11 30.23093705 07 56.46 +38 47 21.7          18.2 RuEW060673
         K10W08V 4C2010 11 30.23163205 07 56.19 +38 47 21.2          18.1 RuEW060673
         K10W08V  C2010 11 30.25090 05 07 48.58 +38 47 09.2          18.6  rEW060718
         K10W08V  C2010 11 30.25824 05 07 45.81 +38 47 06.1          18.5  rEW060718
         K10W08V  C2010 11 30.26881 05 07 41.92 +38 47 01.2          18.5  rEW060718
         K10W08V  C2010 11 30.29634 05 07 31.14 +38 46 57.6          18.3 RtEW060H10
         K10W08V  C2010 11 30.29929 05 07 30.15 +38 46 56.8          18.2 RtEW060H10
         K10W08V  C2010 11 30.30030 05 07 29.71 +38 46 55.8          19.4 RtEW060H10
         K10W08V  C2010 11 30.30132 05 07 29.39 +38 46 56.0          18.2 RtEW060H10
         K10W08V  C2010 11 30.30331 05 07 28.63 +38 46 55.5          18.0 RtEW060H10
         K10W08V  C2010 11 30.37579 05 07 02.01 +38 46 17.3          18.6 RcEW060854
         K10W08V  C2010 11 30.38660 05 06 58.09 +38 46 12.1          19.1 RcEW060854
    
    Observer details:
    114 Engelhardt Observatory, Zelenchukskaya Station.  Observers T. Kryachko,
        B. Satovski.  Measurer T. Kryachko.  0.3-m f/7.7 reflector + CCD.
    204 Schiaparelli Observatory.  Observer L. Buzzi.  0.38-m f/6.8 reflector
        + CCD.
    300 Bisei Spaceguard Center--BATTeRS.  Observers A. Asami, S. Okumura.  1.0-m
        f/3.0 reflector + CCD.
    473 Remanzacco.  Observers L. Donato, V. Gonano, E. Guido, G. Sostero.  0.45-m
        f/4.4 Newtonian reflector + CCD.
    673 Table Mountain Observatory, Wrightwood.  Observers T. Truong, M. Hicks.
        Measurer M. Hicks.  0.6-m f/16 Cassegrain + CCD.
    718 Wiggins Observatory, Tooele.  Observer P. Wiggins.  0.35-m f/5.5
        Schmidt-Cassegrain + CCD.
    854 Sabino Canyon Observatory, Tucson.  Observer J. E. McGaha.  0.36-m f/10.0
        Schmidt-Cassegrain + CCD.
    A24 New Millennium Observatory, Mozzate.  Observer E. Cozzi.  0.36-m f/7.6
        Schmidt-Cassegrain + CCD.
    C20 Kislovodsk Mtn. Astronomical Stn., Pulkovo Obs..  Observer E. S. Romas.
        0.50-m f/8.3 Maksutov-Cassegrain + CCD.
    H10 Tzec Maun Observatory, Mayhill.  Observers D. Chestnov, A. Novichonok.
        0.36-m f/3.8 Maksutov-Newtonian + CCD.
    J95 Great Shefford.  Observer P. Birtwhistle.  0.40-m f/6.0 Schmidt-Cassegrain
        + CCD.
    
    Orbital elements:
    2010 WV8                                            PHA, Earth MOID = 0.0032 AU
    Epoch 2010 July 23.0 TT = JDT 2455400.5                 MPC
    M 336.18952              (2000.0)            P               Q
    n   0.32206978     Peri.  287.54925     +0.94950823     +0.28973562
    a   2.1078324      Node    55.76755     -0.20293258     +0.85974279
    e   0.6665549      Incl.    8.37111     -0.23927491     +0.42058959
    P   3.06           H   22.0           G   0.15           U   8
    Residuals in seconds of arc
    101128 114  1.9-  0.2-    101129 473  0.4+  0.1-    101130 673  0.5-  0.9-
    101128 114  0.6-  0.1+    101129 473  0.3+  0.1-    101130 673  0.7-  0.1-
    101128 114  1.1+  0.1-    101129 J95  0.8-  0.3-    101130 673  0.3-  0.0
    101128 114  1.6+  0.9-    101129 J95  0.2-  0.1+    101130 673  0.1+  0.4+
    101128 114  1.3+  0.0     101129 A24  0.9+  0.2-    101130 673  0.1-  0.1+
    101128 114  0.4+  0.1+    101129 A24  0.6+  0.2+    101130 718  0.7+  0.2+
    101129 C20  0.6-  0.3+    101129 A24  0.6+  0.7+    101130 718  0.2+  0.1+
    101129 C20  0.5-  0.4+    101129 A24  0.5+  0.3-    101130 718  0.6+  0.4-
    101129 C20  0.6-  0.1-    101129 204  0.4+  0.2+    101130 H10  1.0-  0.8-
    101129 C20  0.2-  0.3+    101129 A24  0.7+  0.3+    101130 H10  0.4+  0.1-
    101129 C20  0.0   0.5+    101129 A24  0.8+  0.5+    101130 H10  0.3-  0.6-
    101129 C20  0.2+  0.6+    101129 204  0.4+  0.3+    101130 H10  0.4+  0.1+
    101129 300  0.4+  0.7-    101129 A24  0.9+  0.8+    101130 H10  0.2+  0.5+
    101129 300  1.0+  0.2+    101129 204  0.4+  0.2+    101130 854  0.4-  0.3-
    101129 300  0.3+  1.4-    101130 673  0.1-  0.7+    101130 854  0.4+  0.7+
    
    Ephemeris:
    2010 WV8                 a,e,i = 2.11, 0.67, 8                   q = 0.7028
    Date    TT    R. A. (2000) Decl.     Delta      r     Elong.  Phase     V
    2010 11 30    05 09.26   +38 49.3    0.137    1.117   160.1    17.5    18.8
    2010 12 10    04 35.24   +37 21.9    0.245    1.222   164.0    12.8    20.1
    2010 12 20    04 24.45   +36 07.1    0.364    1.328   157.5    16.5    21.3
    2010 12 30    04 22.72   +35 06.6    0.495    1.431   149.0    20.8    22.3
    2011 01 09    04 26.21   +34 18.6    0.639    1.531   140.4    24.2    23.1
    
    Carl W. Hergenrother         (C) Copyright 2010 MPC           M.P.E.C. 2010-W60
    

    Read MPEC 2010-W59 Read MPEC 2010-X01


    MPEC number:

    Enter an MPEC number in one of the following forms:

    • 1997-B01 (the full form)
    • J97B01 (the packed version of the full form)
    • B01 (the abbreviated form)